Change the Weather History Date:

Wednesday, January 9, 2013

  Actual Average Record
Temperature  
Mean Temperature 40 °F -  
Max Temperature 46 °F 28 °F 60 °F (2008)
Min Temperature 33 °F 10 °F -8 °F (1958)
Degree Days  
Heating Degree Days 26    
Moisture  
Dew Point 27 °F    
Average Humidity 65    
Maximum Humidity 83    
Minimum Humidity 49    
Precipitation  
Precipitation 0.26 in - - ()
Sea Level Pressure  
Sea Level Pressure 30.25 in    
Wind  
Wind Speed 7 mph (SW)    
Max Wind Speed 15 mph    
Max Gust Speed 29 mph    
Visibility 10 miles    
Events Rain    
Averages and records for this station are not official NWS values.
T = Trace of Precipitation, MM = Missing Value Source: NWS Daily Summary

Daily Weather History Graph

Daily Weather History Graph

Search for Another Location

Airport or City:

Trip Planner

Search our weather history database for the weather conditions in past years. The results will help you decide how hot, cold, wet, or windy it might be!

Date:

Astronomy

Jan. 09, 2013 Rise Set
Actual Time 7:47 AM EST 5:09 PM EST
Civil Twilight 7:16 AM EST 5:40 PM EST
Nautical Twilight 6:41 AM EST 6:14 PM EST
Astronomical Twilight 6:08 AM EST 6:48 PM EST
Moon 5:24 AM EST (1/9) 3:09 PM EST (1/9)
Length of Visible Light 10h 24m
Length of Day
9h 22m
Waning Crescent, 6% of the Moon is Illuminated
Jan 9
Waning Crescent
Jan 11
New
Jan 18
First Quarter
Jan 26
Full
Feb 3
Last Quarter

Hourly Weather History & Observations

Time (EST) Temp. Windchill Dew Point Humidity Pressure Visibility Wind Dir Wind Speed Gust Speed Precip Events Conditions
12:53 AM 34.0 °F - 25.0 °F 70% 30.27 in 10.0 mi Calm Calm - N/A   Clear
1:53 AM 34.0 °F 31.0 °F 25.0 °F 70% 30.26 in 10.0 mi Variable 3.5 mph - N/A   Clear
2:53 AM 34.0 °F 29.8 °F 25.0 °F 70% 30.26 in 10.0 mi Variable 4.6 mph - N/A   Clear
3:53 AM 35.1 °F 29.3 °F 25.0 °F 67% 30.25 in 10.0 mi South 6.9 mph - N/A   Clear
4:53 AM 35.1 °F 30.1 °F 24.1 °F 64% 30.22 in 10.0 mi Variable 5.8 mph - N/A   Clear
5:53 AM 36.0 °F 31.1 °F 24.1 °F 62% 30.19 in 10.0 mi South 5.8 mph - N/A   Clear
6:53 AM 36.0 °F 31.1 °F 24.1 °F 62% 30.20 in 10.0 mi South 5.8 mph - N/A   Scattered Clouds
7:53 AM 37.9 °F 30.9 °F 26.1 °F 62% 30.20 in 10.0 mi South 10.4 mph 17.3 mph N/A   Overcast
8:53 AM 41.0 °F 34.3 °F 30.0 °F 65% 30.21 in 10.0 mi SSW 11.5 mph 19.6 mph 0.02 in   Overcast
9:53 AM 37.9 °F 30.9 °F 33.1 °F 83% 30.18 in 10.0 mi South 10.4 mph - 0.03 in Rain Light Rain
10:53 AM 39.0 °F 30.6 °F 33.1 °F 79% 30.17 in 10.0 mi SSW 15.0 mph 20.7 mph 0.12 in   Scattered Clouds
11:53 AM 41.0 °F 34.3 °F 34.0 °F 76% 30.16 in 10.0 mi SSW 11.5 mph 19.6 mph 0.07 in   Clear
12:53 PM 44.1 °F 37.4 °F 34.0 °F 68% 30.16 in 10.0 mi WSW 13.8 mph 25.3 mph 0.02 in   Partly Cloudy
1:53 PM 45.0 °F 38.5 °F 32.0 °F 60% 30.14 in 10.0 mi SW 13.8 mph 24.2 mph N/A   Clear
2:53 PM 46.0 °F 41.0 °F 30.9 °F 56% 30.17 in 10.0 mi WSW 10.4 mph 16.1 mph N/A   Clear
3:53 PM 45.0 °F 38.2 °F 27.0 °F 49% 30.18 in 10.0 mi WSW 15.0 mph 28.8 mph N/A   Clear
4:53 PM 44.1 °F 38.1 °F 27.0 °F 51% 30.22 in 10.0 mi WSW 11.5 mph 19.6 mph N/A   Clear
5:53 PM 42.1 °F 35.7 °F 25.0 °F 51% 30.26 in 10.0 mi WSW 11.5 mph - N/A   Clear
6:53 PM 39.9 °F 32.1 °F 26.1 °F 58% 30.30 in 10.0 mi WSW 13.8 mph - N/A   Clear
7:53 PM 39.0 °F 30.6 °F 26.1 °F 60% 30.33 in 10.0 mi WSW 15.0 mph - N/A   Clear
8:53 PM 37.9 °F 29.6 °F 26.1 °F 62% 30.35 in 10.0 mi WSW 13.8 mph - N/A   Clear
9:53 PM 36.0 °F 32.1 °F 26.1 °F 67% 30.40 in 10.0 mi WSW 4.6 mph - N/A   Clear
10:53 PM 33.1 °F 27.7 °F 25.0 °F 72% 30.43 in 10.0 mi West 5.8 mph - N/A   Clear
11:53 PM 33.1 °F 27.7 °F 26.1 °F 75% 30.46 in 10.0 mi WSW 5.8 mph - N/A   Clear